Location: Axtheid
(49.6213°N, 11.8205°E)
Time: 13:27:14
(UTC+00:00)

Cosmos 2278 Rocket - Pass Details

Date: 24 January 2021
Orbit: 839 x 847 km, 71.0° (Epoch: 25 February)

Event Time Altitude Azimuth Distance (km) Brightness Sun altitude
Rises 17:21:07 0° 163° (SSE) 3,389 5.3 -13.8°
Reaches altitude 10° 17:24:05 10° 148° (SSE) 2,461 4.4 -14.2°
Maximum altitude 17:28:13 21° 101° (E) 1,797 3.4 -14.9°
Enters shadow 17:28:43 21° 94° (E) 1,809 3.3 -15.0°
